Kiruna, Sweden

2:33 PM CET on January 20, 2018 (GMT +0100)
Kiruna

Weather History for ESNQ - November, 2013

Change the Weather History Date:

Saturday, November 9, 2013

  Actual Average Record
Temperature  
Mean Temperature 14 °F -  
Max Temperature 24 °F - - ()
Min Temperature 5 °F - - ()
Degree Days  
Heating Degree Days 50    
Moisture  
Dew Point 19 °F    
Average Humidity 96    
Maximum Humidity 100    
Minimum Humidity 85    
Precipitation  
Precipitation 0.00 in - - ()
Sea Level Pressure  
Sea Level Pressure 29.38 in    
Wind  
Wind Speed 6 mph ()    
Max Wind Speed 12 mph    
Max Gust Speed -    
Visibility 5.4 miles    
Events      
T = Trace of Precipitation, MM = Missing Value Source: Averaged Metar Reports

Daily Weather History Graph

Daily Weather History Graph

Search for Another Location

Airport or City:

Trip Planner

Search our weather history database for the weather conditions in past years. The results will help you decide how hot, cold, wet, or windy it might be!

Date:

Astronomy

Nov. 09, 2013 Rise Set
Actual Time 8:22 AM CET 2:21 PM CET
Civil Twilight 7:11 AM CET 3:32 PM CET
Nautical Twilight 6:01 AM CET 4:42 PM CET
Astronomical Twilight 4:56 AM CET 5:46 PM CET
Moon 1:21 PM CET (11/9) 9:06 PM CET (11/9)
Length of Visible Light 8h 21m
Length of Day
5h 59m
Waxing Crescent, 41% of the Moon is Illuminated
Nov 9
Waxing Crescent
Nov 10
First Quarter
Nov 17
Full
Nov 25
Last Quarter
Dec 3
New

Hourly Weather History & Observations

Time (CET) Temp. Windchill Dew Point Humidity Pressure Visibility Wind Dir Wind Speed Gust Speed Precip Events Conditions
12:20 AM 23.0 °F - 23.0 °F 100% 29.36 in 6.2 mi Variable 1.2 mph - N/A   Overcast
12:50 AM 23.0 °F 15.8 °F 23.0 °F 100% 29.36 in 6.2 mi SSE 5.8 mph - N/A   Overcast
1:20 AM 24.8 °F 16.1 °F 23.0 °F 93% 29.36 in 6.2 mi South 8.1 mph - N/A   Overcast
1:50 AM 24.8 °F 17.9 °F 23.0 °F 93% 29.36 in 6.2 mi South 5.8 mph - N/A   Overcast
2:20 AM 24.8 °F 19.1 °F 23.0 °F 93% 29.36 in 6.2 mi South 4.6 mph - N/A   Overcast
2:50 AM 24.8 °F 17.9 °F 23.0 °F 93% 29.36 in 6.2 mi South 5.8 mph - N/A   Overcast
3:20 AM 24.8 °F 16.9 °F 23.0 °F 93% 29.36 in 6.2 mi South 6.9 mph - N/A   Overcast
3:50 AM 24.8 °F 15.3 °F 23.0 °F 93% 29.36 in 6.2 mi South 9.2 mph - N/A   Overcast
4:20 AM 24.8 °F 16.1 °F 23.0 °F 93% 29.39 in 6.2 mi South 8.1 mph - N/A   Overcast
4:50 AM 24.8 °F 16.1 °F 23.0 °F 93% 29.36 in 4.3 mi South 8.1 mph - N/A   Overcast
5:20 AM 23.0 °F 13.9 °F 23.0 °F 100% 29.36 in 3.7 mi South 8.1 mph - N/A   Overcast
5:50 AM 23.0 °F 13.1 °F 23.0 °F 100% 29.39 in 3.7 mi South 9.2 mph - N/A   Overcast
6:20 AM 23.0 °F 11.7 °F 21.2 °F 93% 29.39 in 6.2 mi South 11.5 mph - N/A   Overcast
6:50 AM 23.0 °F 13.9 °F 21.2 °F 93% 29.39 in 6.2 mi South 8.1 mph - N/A   Overcast
7:20 AM 23.0 °F 13.1 °F 21.2 °F 93% 29.39 in 3.7 mi South 9.2 mph - N/A   Overcast
7:50 AM 21.2 °F 9.5 °F 21.2 °F 100% 29.39 in 3.1 mi SSW 11.5 mph - N/A   Overcast
8:20 AM 21.2 °F 10.9 °F 21.2 °F 100% 29.39 in 3.1 mi SSW 9.2 mph - N/A   Overcast
8:50 AM 21.2 °F 10.1 °F 21.2 °F 100% 29.39 in 3.7 mi South 10.4 mph - N/A   Overcast
9:20 AM 21.2 °F 11.7 °F 21.2 °F 100% 29.39 in 6.2 mi South 8.1 mph - N/A   Overcast
9:50 AM 21.2 °F 13.6 °F 21.2 °F 100% 29.39 in 6.2 mi South 5.8 mph - N/A   Overcast
10:20 AM 21.2 °F 12.6 °F 21.2 °F 100% 29.39 in 3.7 mi SSE 6.9 mph - N/A   Overcast
10:50 AM 23.0 °F 14.7 °F 23.0 °F 100% 29.39 in 6.2 mi South 6.9 mph - N/A   Overcast
11:20 AM 23.0 °F 14.7 °F 23.0 °F 100% 29.39 in 6.2 mi South 6.9 mph - N/A   Overcast
11:50 AM 23.0 °F 13.1 °F 21.2 °F 93% 29.39 in 3.1 mi South 9.2 mph - N/A   Overcast
12:20 PM 23.0 °F 14.7 °F 21.2 °F 93% 29.39 in 5.0 mi South 6.9 mph - N/A   Overcast
12:50 PM 21.2 °F 10.1 °F 21.2 °F 100% 29.39 in 6.2 mi South 10.4 mph - N/A   Overcast
1:20 PM 21.2 °F 10.9 °F 21.2 °F 100% 29.39 in 6.2 mi South 9.2 mph - N/A   Overcast
1:50 PM 21.2 °F 11.7 °F 21.2 °F 100% 29.39 in 6.2 mi South 8.1 mph - N/A   Overcast
2:20 PM 21.2 °F 10.1 °F 21.2 °F 100% 29.39 in 6.2 mi South 10.4 mph - N/A   Overcast
2:50 PM 21.2 °F 10.1 °F 21.2 °F 100% 29.39 in 6.2 mi SSW 10.4 mph - N/A   Overcast
3:20 PM 21.2 °F 11.7 °F 21.2 °F 100% 29.39 in 4.3 mi SSW 8.1 mph - N/A   Overcast
3:50 PM 21.2 °F 10.1 °F 19.4 °F 93% 29.39 in 6.2 mi South 10.4 mph - N/A   Overcast
4:20 PM 21.2 °F 10.9 °F 19.4 °F 93% 29.39 in 6.2 mi South 9.2 mph - N/A   Overcast
4:50 PM 19.4 °F 9.5 °F 19.4 °F 100% 29.39 in 6.2 mi SW 8.1 mph - N/A   Overcast
5:20 PM 17.6 °F 5.7 °F 17.6 °F 100% 29.39 in 6.2 mi SSW 10.4 mph - N/A   Overcast
5:50 PM 17.6 °F 7.3 °F 17.6 °F 100% 29.39 in 3.1 mi South 8.1 mph - N/A   Overcast
6:20 PM 17.6 °F 7.3 °F 15.8 °F 93% 29.39 in 1.7 mi SSW 8.1 mph - N/A   Overcast
6:50 PM 17.6 °F 10.7 °F 15.8 °F 93% 29.36 in 1.7 mi South 4.6 mph - N/A   Overcast
7:20 PM 15.8 °F 7.2 °F 14.0 °F 93% 29.39 in 5.0 mi SSW 5.8 mph - N/A   Overcast
7:50 PM 14.0 °F 5.1 °F 14.0 °F 100% 29.36 in 6.2 mi South 5.8 mph - N/A   Overcast
8:20 PM 14.0 °F 5.1 °F 12.2 °F 93% 29.36 in 6.2 mi South 5.8 mph - N/A   Overcast
8:50 PM 14.0 °F 6.5 °F 12.2 °F 93% 29.36 in 6.2 mi South 4.6 mph - N/A   Overcast
9:20 PM 12.2 °F 4.3 °F 10.4 °F 92% 29.36 in 6.2 mi SSW 4.6 mph - N/A   Mostly Cloudy
9:50 PM 10.4 °F 2.2 °F 8.6 °F 92% 29.36 in 6.2 mi SW 4.6 mph - N/A   Unknown
10:20 PM 8.6 °F - 6.8 °F 92% 29.36 in 6.2 mi Variable 1.2 mph - N/A   Unknown
10:50 PM 8.6 °F 2.0 °F 6.8 °F 92% 29.36 in 6.2 mi SW 3.5 mph - N/A   Unknown
11:20 PM 5.0 °F -4.1 °F 1.4 °F 85% 29.36 in 6.2 mi SSW 4.6 mph - N/A   Unknown
11:50 PM 5.0 °F -4.1 °F 3.2 °F 92% 29.36 in 6.2 mi SW 4.6 mph - N/A   Unknown